This demonstration page uses our WeatherBlox Daily Observations layout. Learn more.

Left ArrowRight Arrow

39.51506, -84.39828

Hourly Observations for July 30, 2015

Temp ( °F °C ) Dew Point ( °F °C ) Humidity (%) Winds ( mph kmh ) Pressure ( in mb ) Visibility ( mi km ) Precip ( " mm )
12:15 am 00:15 Mostly Cloudy with Mist and Fog 77 25.1 74 23.5 91 91 SW 3 6 29.97 1015 5 8 N/A
12:35 am 00:35 Partly Cloudy with Mist and Fog 77 25.1 74 23.3 90 90 SSW 6 9 29.97 1015 5 8 N/A
12:55 am 00:55 Partly Cloudy with Mist and Fog 77 25.1 74 23.5 91 91 SW 3 6 29.97 1015 5 8 N/A
1:15 am 01:15 Cloudy with Mist and Fog 77 25.1 74 23.5 91 91 N N/A 29.97 1015 5 8 N/A
1:35 am 01:35 Mostly Cloudy 77 25.1 74 23.1 89 89 N N/A 29.97 1015 10 16 N/A
1:55 am 01:55 Cloudy 77 25.1 73 22.9 88 88 N N/A 29.97 1015 10 16 N/A
2:15 am 02:15 Cloudy 77 25.1 72 22 83 83 N 3 6 29.97 1015 10 16 N/A
2:35 am 02:35 Cloudy 74 23.6 69 20.7 84 84 N N/A 29.97 1015 10 16 N/A
2:55 am 02:55 Cloudy 74 23.6 69 20.6 83 83 N N/A 29.97 1015 10 16 N/A
3:15 am 03:15 Mostly Cloudy 74 23.6 69 20.7 84 84 W 3 6 29.97 1015 10 16 N/A
3:35 am 03:35 Cloudy 74 23.6 71 21.7 89 89 N N/A 29.97 1015 10 16 N/A
3:55 am 03:55 Cloudy 74 23.6 71 21.9 90 90 N N/A 29.97 1015 10 16 N/A
4:15 am 04:15 Mostly Cloudy 74 23.6 71 21.7 89 89 N N/A 29.97 1015 10 16 N/A
4:35 am 04:35 Cloudy 74 23.6 71 21.7 89 89 N N/A 30.00 1016 10 16 N/A
4:55 am 04:55 Mostly Cloudy 74 23.6 71 21.7 89 89 N N/A 30.00 1016 10 16 N/A
5:15 am 05:15 Clear 74 23.6 69 20.6 83 83 N N/A 30.00 1016 10 16 N/A
5:35 am 05:35 Clear 72 22 67 19.2 84 84 NW 3 6 30.00 1016 10 16 N/A
5:55 am 05:55 Partly Cloudy 69 20.8 64 17.7 83 83 NW 3 6 30.00 1016 10 16 N/A
6:15 am 06:15 Partly Cloudy 69 20.8 64 17.6 82 82 N N/A 30.00 1016 10 16 N/A
6:35 am 06:35 Clear 69 20.8 64 17.7 83 83 N N/A 30.03 1017 10 16 N/A
6:55 am 06:55 Sunny 69 20.8 63 17.2 80 80 N N/A 30.03 1017 10 16 N/A
7:15 am 07:15 Sunny 69 20.8 63 17.2 80 80 NNW 5 7 30.03 1017 10 16 N/A
7:35 am 07:35 Sunny 69 20.8 62 16.7 77 77 NW 6 9 30.03 1017 10 16 N/A
7:55 am 07:55 Sunny 69 20.8 62 16.4 76 76 NW 7 11 30.03 1017 10 16 N/A
8:15 am 08:15 Sunny 72 22.3 63 17 72 72 NNW 8 13 30.03 1017 10 16 N/A
8:35 am 08:35 Sunny 74 23.6 64 17.7 70 70 NNW 7 11 30.03 1017 10 16 N/A
8:55 am 08:55 Sunny 74 23.6 63 17.4 68 68 NNW 8 13 30.03 1017 10 16 N/A
9:15 am 09:15 Sunny 74 23.6 63 17 67 67 NNW 7 11 30.06 1018 10 16 N/A
9:35 am 09:35 Sunny 75 23.8 63 17 66 66 N 5 7 30.06 1018 10 16 N/A
9:55 am 09:55 Sunny 77 25.1 63 17.2 62 62 N 8 13 30.06 1018 10 16 N/A
10:15 am 10:15 Sunny 77 25.1 63 17.2 62 62 N 6 9 30.06 1018 10 16 N/A
10:35 am 10:35 Sunny 80 26.5 64 17.8 59 59 NNW 7 11 30.06 1018 10 16 N/A
10:55 am 10:55 Sunny 80 26.5 63 17 56 56 N 3 6 30.06 1018 10 16 N/A
11:15 am 11:15 Sunny 80 26.6 61 16.2 53 53 NNW 8 13 30.06 1018 10 16 N/A
11:35 am 11:35 Sunny 81 27.2 61 15.9 50 50 N 3 6 30.06 1018 10 16 N/A
11:55 am 11:55 Sunny 81 27.2 58 14.4 45 45 N 7 11 30.06 1018 10 16 N/A
12:15 pm 12:15 Sunny 82 27.8 58 14.4 44 44 N 8 13 30.06 1018 10 16 N/A
12:35 pm 12:35 Sunny 82 28 58 14.4 43 43 N N/A 30.06 1018 10 16 N/A
12:55 pm 12:55 Sunny 82 28 57 13.8 42 42 NNW 6 9 30.06 1018 10 16 N/A
1:15 pm 13:15 Sunny 82 28 57 13.7 41 41 NW 5 7 30.06 1018 10 16 N/A
1:35 pm 13:35 Sunny 82 28 57 14.1 43 43 W 8 13 30.06 1018 10 16 N/A
1:55 pm 13:55 Sunny 83 28.2 55 12.9 39 39 NW 5 7 30.06 1018 10 16 N/A
2:15 pm 14:15 Sunny 83 28.3 55 12.7 38 38 NW 12 19 30.06 1018 10 16 N/A
2:35 pm 14:35 Sunny 83 28.6 59 14.8 43 43 W 9 15 30.03 1017 10 16 N/A
2:55 pm 14:55 Sunny 83 28.6 56 13.5 39 39 W 8 13 30.00 1016 10 16 N/A
3:15 pm 15:15 Sunny 84 28.8 56 13.3 39 39 WNW 9 15 30.00 1016 10 16 N/A
3:35 pm 15:35 Sunny 84 28.9 59 14.8 42 42 W 10 17 30.00 1016 10 16 N/A
3:55 pm 15:55 Sunny 84 29 56 13.6 39 39 WNW 10 17 30.00 1016 10 16 N/A
4:15 pm 16:15 Sunny 84 28.8 55 12.9 38 38 WNW 9 15 30.00 1016 10 16 N/A
4:35 pm 16:35 Sunny 84 29.1 57 13.8 39 39 W 8 13 30.00 1016 10 16 N/A
4:55 pm 16:55 Sunny 84 29 55 12.5 36 36 W 14 22 30.00 1016 10 16 N/A
5:15 pm 17:15 Sunny 84 28.9 54 12 35 35 NW 8 13 30.00 1016 10 16 N/A
5:35 pm 17:35 Sunny 84 28.8 54 12.1 36 36 WNW 9 15 30.00 1016 10 16 N/A
5:55 pm 17:55 Sunny 83 28.6 54 12.3 37 37 WNW 12 19 30.00 1016 10 16 N/A
6:15 pm 18:15 Sunny 83 28.6 56 13.5 39 39 W 8 13 29.97 1015 10 16 N/A
6:35 pm 18:35 Sunny 83 28.3 55 12.9 39 39 WNW 5 7 30.00 1016 10 16 N/A
6:55 pm 18:55 Sunny 83 28.2 56 13.2 40 40 WNW 7 11 N/A 10 16 N/A
7:15 pm 19:15 Sunny 82 28 58 14.4 43 43 WNW 6 9 30.00 1016 10 16 N/A
7:35 pm 19:35 Partly Cloudy 82 27.5 60 15.3 47 47 WNW 6 9 30.00 1016 10 16 N/A
7:55 pm 19:55 Partly Cloudy 80 26.8 60 15.6 50 50 WNW 5 7 30.00 1016 10 16 N/A
8:15 pm 20:15 Sunny 80 26.5 62 16.6 55 55 W 3 6 30.00 1016 10 16 N/A
8:35 pm 20:35 Sunny 76 24.5 67 19.4 73 73 W 5 7 30.00 1016 10 16 N/A
8:55 pm 20:55 Clear 74 23.6 68 19.9 80 80 W 5 7 30.00 1016 10 16 N/A
9:15 pm 21:15 Clear 74 23.6 68 20.1 81 81 N N/A 30.03 1017 10 16 N/A
9:35 pm 21:35 Clear 73 23 68 20 83 83 N N/A 30.03 1017 7 11 N/A
9:55 pm 21:55 Clear 70 21.2 65 18.6 85 85 N N/A 30.03 1017 10 16 N/A
10:15 pm 22:15 Clear 69 20.8 65 18.5 87 87 N N/A 30.03 1017 10 16 N/A
10:35 pm 22:35 Clear 69 20.8 65 18.1 85 85 N N/A 30.03 1017 10 16 N/A
10:55 pm 22:55 Clear 69 20.8 64 17.8 83 83 N N/A 30.03 1017 10 16 N/A
11:15 pm 23:15 Clear 69 20.8 64 18 84 84 N N/A 30.03 1017 10 16 N/A
11:35 pm 23:35 Clear 69 20.8 65 18.3 86 86 N N/A 30.03 1017 10 16 N/A
11:55 pm 23:55 Clear 69 20.8 65 18.2 85 85 N N/A 30.03 1017 10 16 N/A

Powered by AerisWeather